Regional Weather Roundup
Issued by NWS

Home | Current Version | Previous Version | Graphics & Text | Print | Product List | Glossary On
Versions: 1 2 3 4 5 6 7 8 9 10 11 12 13 14 15 16 17 18 19 20 21 22 23 24 25 26 27 28 29 30 31 32 33 34 35 36 37 38 39 40 41 42 43 44 45 46 47 48 49 50
000
ASUS43 KLOT 191200
RWRIL

ILLINOIS REGIONAL WEATHER ROUNDUP
NATIONAL WEATHER SERVICE CHICAGO/ROMEOVILLE IL
700 AM CDT SAT APR 19 2014

NOTE: "FAIR" INDICATES FEW OR NO CLOUDS BELOW 12,000 FEET WITH NO
SIGNIFICANT WEATHER AND/OR OBSTRUCTIONS TO VISIBILITY.

* THESE STATIONS ARE NOT UNDER NWS QUALITY CONTROL. THEY ALSO MAY NOT
  REPORT WEATHER SUCH AS PRECIPITATION OR FOG.

ILZ001-002-007-009-015-016-024-191300-
NORTHWEST ILLINOIS

CITY           SKY/WX    TMP DP  RH WIND       PRES   REMARKS
MOLINE         MOCLDY    37  30  75 E9        30.31R WCI  30
6HR MIN TEMP:  34; 6HR MAX TEMP:  44;

STERLING*      CLEAR     36  28  75 E12       30.33R WCI  27
$$

ILZ003-004-008-010-011-017-018-191300-
NORTH CENTRAL ILLINOIS

CITY           SKY/WX    TMP DP  RH WIND       PRES   REMARKS
ROCKFORD       PTCLDY    36  27  69 E9        30.36S WCI  29
6HR MIN TEMP:  35; 6HR MAX TEMP:  37;

$$

ILZ005-006-012>014-019>023-191300-
NORTHEAST ILLINOIS

CITY           SKY/WX    TMP DP  RH WIND       PRES   REMARKS
CHICAGO-OHARE  FAIR      38  28  67 NE9       30.37S WCI  31
6HR MIN TEMP:  37; 6HR MAX TEMP:  38;

CHICAGO-MIDWAY PTCLDY    40  32  73 NE12      30.37S
6HR MIN TEMP:  38; 6HR MAX TEMP:  41;

AURORA         CLEAR     37  29  72 E10       30.36R WCI  30
6HR MIN TEMP:  33; 6HR MAX TEMP:  38;

WAUKEGAN       CLEAR     35  29  78 NE10      30.39R WCI  27
6HR MIN TEMP:  33; 6HR MAX TEMP:  36;

DUPAGE AIRPORT CLEAR     37  30  75 NE8       30.36R WCI  31
6HR MIN TEMP:  30; 6HR MAX TEMP:  37;

WHEELING       CLEAR     38  30  73 E8        30.40S WCI  32
6HR MIN TEMP:  37; 6HR MAX TEMP:  38;

NORTHERLY ISL    N/A     39  33  79 NE13        N/A  WCI  31
$$

LMZ740>746-191300-
SOUTHERN LAKE MICHIGAN

STATION/POSITION SKY/WX   TEMP    WIND        PRES    VSBY  WAVE
                          AIR SEA DIR/SP/G                  HT/PER
                          (F)     (DEG/KT/KT) (MB)    (MI)  (FT/S)
WAUKEGAN HARBOR            36      60/ 13/ 16 1030.5R
HARRISON CRIB              38      60/ 14/ 17   N/A
BURNHAM HARBOR             39      40/  9/ 12   N/A
CALUMET HARBOR             39      50/  8/ 10 1029.3R
MICHIGAN CITY              38      50/  9/ 10   N/A
$$

ILZ025>027-034>036-040-047-049-050-058-095>099-191300-
WEST-CENTRAL ILLINOIS

CITY           SKY/WX    TMP DP  RH WIND       PRES   REMARKS
QUINCY         CLEAR     44  33  65 SE9       30.27R
$$

ILZ028>032-037-038-041>044-048-051>054-059>061-191300-
CENTRAL ILLINOIS

CITY           SKY/WX    TMP DP  RH WIND       PRES   REMARKS
DECATUR        CLEAR     37  31  78 E8        30.31S WCI  31
PEORIA         CLEAR     40  25  55 E9        30.32S
6HR MIN TEMP:  39; 6HR MAX TEMP:  44;

SPRINGFIELD    CLEAR     39  31  72 NE7       30.31R WCI  34
6HR MIN TEMP:  39; 6HR MAX TEMP:  50;

TAYLORVILLE    NOT AVBL
$$

ILZ033-039-045-046-055>057-062-063-191300-
EAST-CENTRAL ILLINOIS

CITY           SKY/WX    TMP DP  RH WIND       PRES   REMARKS
CHAMPAIGN      CLEAR     39  27  62 NE13      30.31S WCI  31
MATTOON          N/A     41  33  73 E5        30.30R
$$

ILZ079-100>102-191300-
SOUTHWEST ILLINOIS

CITY           SKY/WX    TMP DP  RH WIND       PRES   REMARKS
ALTON          CLEAR     46  37  71 E7        30.28R
BELLEVILLE     PTCLDY    46  42  86 N3        30.27R
$$

ILZ064>066-069>071-074>076-080>082-084>086-088>090-092>094-191300-
SOUTH-CENTRAL ILLINOIS

CITY           SKY/WX    TMP DP  RH WIND       PRES   REMARKS
CARBONDALE     FOG       44  42  93 CALM      30.26R VSB 1
6HR MIN TEMP:  42; 6HR MAX TEMP:  50;

MARION         MOCLDY    46  43  87 NE7       30.27R
MT. VERNON     CLEAR     48  34  57 NE6       30.28S
$$

ILZ067-068-072-073-078-083-087-091-191300-
SOUTHEAST ILLINOIS

CITY           SKY/WX    TMP DP  RH WIND       PRES   REMARKS
$$

ABBREVIATIONS USED IN REMARKS
   TC - TEMPERATURE IN CELSIUS
  WCI - WIND CHILL INDEX
   HX - HEAT INDEX
  VSB - VISIBILITY
$$




USA.gov is the U.S. government's official web portal to all federal, state and local government web resources and services.